User: anonymous   Login
Location: Unspecified
(0.0000°N, 0.0000°E)
Time: 04:30:36
(UTC+00:00)
Language:

STSS DEMO 1 (USA 208) - Orbit

View from above orbital plane
View from above orbital plane
View from above satellite
View from above satellite

Ground track
Ground track

The orbit data is extracted from the following two-line orbital elements,

1 35937U 09052A   15201.09251634 0.00000000  00000-0  00000-0 0    05
2 35937  57.9917 111.2009 0013464 317.9524  42.0476 12.79144613    01
Epoch (UTC): 20 July 2015 02:13:13
Eccentricity: 0.0013464
inclination: 57.9917°
perigee height: 1334 km
apogee height: 1355 km
right ascension of ascending node: 111.2009°
argument of perigee: 317.9524°
revolutions per day: 12.79144613
mean anomaly at epoch: 42.0476°
orbit number at epoch: 0

The dashed part of the orbit path shows where the satellite is in the earth's shadow,  

DLR